Powrót do katalogu

STARLINK-11437

AktywnyŁącznośćVLEO
NORAD 62884·PAYLOAD·🇺🇸 United States

Wystrzelony Feb 4, 2025 z Cape Canaveral Space Force Station

Loading…

Następne Przeloty (najbliższe 24 godziny)

TLE

ŚwieżeSource: CelesTrak SupGP

Epoka: Sep 15, 2026, 02:15 UTC

1 62884C 25024F   26258.09423611  .00098777  00000+0  76724-3 0  2584
2 62884  43.0004 119.9307 0001689 268.6186  84.6554 15.70788032    16

Śledź STARLINK-11437 w czasie rzeczywistym z AllMySat

Download on the App Store